DW0000 Auckland NZ current weather conditions

sailwx.info

Wind from 094 at 7 knots gusting 11

Air temperature 12.2° C
Dewpoint 11.3° C

Last reported at 2020-May-27 01:09 UTC.
Time now 2020-May-27 02:08 UTC

Location: S 37°08' E 174°37'.
View on Google Maps.

See reports from other nearby stations

  
Tides and Currents Weather Stations Pressure Air Temp Water Temp Dewpoint Dewpoint Depression Visibility Wind Speed Wind Dir Waves Ship Positions
date/time (UTC)wind fromknots sea level pressurealtimeterstation pressurevisibilityair tempwater tempwave heightnotes
2020-May-27 01:09 094 7 gusting 11 12.2
2020-May-27 00:59 103 7 gusting 11 12.2
2020-May-27 00:54 096 6 gusting 8 12.2
2020-May-27 00:49 098 6 gusting 11 12.2
2020-May-27 00:44 101 6 gusting 10 12.2
2020-May-27 00:39 096 6 gusting 10 12.2
2020-May-27 00:34 096 8 gusting 11 12.2
2020-May-27 00:29 093 6 gusting 11 12.2
2020-May-27 00:24 097 7 gusting 10 12.2
2020-May-27 00:19 088 6 gusting 12 12.2
2020-May-27 00:09 100 6 gusting 10 12.2
2020-May-26 23:59 102 7 gusting 12 12.2
2020-May-26 23:49 105 8 gusting 12 12.2
2020-May-26 23:44 089 7 gusting 13 12.2
2020-May-26 23:34 098 7 gusting 10 12.2
2020-May-26 23:29 092 8 gusting 11 12.2
2020-May-26 23:19 098 6 gusting 10 12.2
2020-May-26 23:14 098 6 gusting 10 12.2
2020-May-26 23:10 101 7 gusting 10 12.2
2020-May-26 23:04 098 7 gusting 12 12.2
2020-May-26 22:59 085 8 gusting 12 12.2
2020-May-26 22:54 087 6 gusting 10 12.2
2020-May-26 22:49 098 8 gusting 12 12.2
2020-May-26 22:44 094 9 gusting 13 11.7
2020-May-26 22:34 097 7 gusting 13 11.7
2020-May-26 22:29 095 7 gusting 13 11.7
2020-May-26 22:19 087 8 gusting 13 11.7
2020-May-26 22:14 095 8 gusting 13 11.7
2020-May-26 22:09 100 7 gusting 13 11.7
2020-May-26 22:04 099 8 gusting 12 11.7
2020-May-26 21:54 105 7 gusting 12 11.7
2020-May-26 21:49 102 6 gusting 11 11.7
2020-May-26 21:44 101 7 gusting 11 11.7
2020-May-26 21:39 096 8 gusting 13 11.7
2020-May-26 21:34 099 8 gusting 13 11.7
2020-May-26 21:29 095 9 gusting 15 11.7
2020-May-26 21:24 099 7 gusting 13 11.7
2020-May-26 21:19 096 8 gusting 13 11.7
2020-May-26 21:14 096 7 gusting 12 11.7
2020-May-26 21:09 091 6 gusting 13 11.7
2020-May-26 20:59 097 8 gusting 11 11.7
2020-May-26 20:54 106 6 gusting 10 11.7
2020-May-26 20:49 102 8 gusting 12 11.7
2020-May-26 20:34 095 7 gusting 11 11.7
2020-May-26 20:29 096 9 gusting 13 11.7
2020-May-26 20:19 092 8 gusting 11 11.7
2020-May-26 20:14 094 7 gusting 13 11.7
2020-May-26 20:04 095 8 gusting 13 11.7
2020-May-26 19:49 097 7 gusting 15 11.7
2020-May-26 19:44 098 9 gusting 13 11.7
2020-May-26 19:39 098 8 gusting 13 11.7
2020-May-26 19:34 095 8 gusting 15 11.7
2020-May-26 19:24 101 9 gusting 14 11.7
2020-May-26 19:14 097 6 gusting 12 11.7
2020-May-26 19:09 106 6 gusting 12 11.7
2020-May-26 19:04 111 7 gusting 14 11.7
2020-May-26 18:54 105 6 gusting 13 12.2
2020-May-26 18:39 103 7 gusting 12 12.2
2020-May-26 18:34 094 7 gusting 13 12.2
2020-May-26 18:29 100 6 gusting 11 12.2
2020-May-26 18:19 102 9 gusting 13 12.2
2020-May-26 18:14 094 7 gusting 14 12.2
2020-May-26 18:04 097 8 gusting 13 12.2
2020-May-26 17:59 099 8 gusting 13 12.2
2020-May-26 17:54 094 10 gusting 13 12.2
2020-May-26 17:29 096 7 gusting 11 12.2
2020-May-26 17:24 095 7 gusting 11 12.2
2020-May-26 17:19 100 7 gusting 10 12.2
2020-May-26 17:14 101 7 gusting 11 12.2
2020-May-26 17:09 101 7 gusting 11 12.2
2020-May-26 16:59 098 7 gusting 10 12.2
2020-May-26 16:54 107 6 gusting 10 12.2
2020-May-26 16:49 107 6 gusting 10 12.2
2020-May-26 16:44 097 7 gusting 10 12.2
2020-May-26 16:39 103 6 gusting 10 12.2
2020-May-26 16:29 103 7 gusting 10 12.2
2020-May-26 16:14 094 6 gusting 10 12.2
2020-May-26 16:09 106 6 gusting 10 12.2
2020-May-26 15:59 100 6 gusting 10 12.2
2020-May-26 15:54 116 6 gusting 12 12.8
2020-May-26 15:39 094 6 gusting 10 12.8
2020-May-26 15:34 103 6 gusting 10 12.8
2020-May-26 15:29 096 6 gusting 10 12.8
2020-May-26 15:24 099 6 gusting 11 12.8
2020-May-26 15:19 101 8 gusting 11 12.8
2020-May-26 15:09 094 6 gusting 11 12.8
2020-May-26 15:04 093 7 gusting 13 12.8
2020-May-26 14:59 093 7 gusting 13 12.8
2020-May-26 14:49 093 7 gusting 12 12.8
2020-May-26 14:39 100 6 gusting 13 12.8
2020-May-26 14:29 106 7 gusting 13 12.8
2020-May-26 14:09 104 8 gusting 12 13.3
2020-May-26 14:04 103 8 gusting 14 13.3
2020-May-26 13:54 097 8 gusting 14 13.3
2020-May-26 13:49 101 8 gusting 13 13.3
2020-May-26 13:39 104 6 gusting 12 13.9
2020-May-26 13:34 097 6 gusting 11 13.9
2020-May-26 13:24 096 6 gusting 10 13.9
2020-May-26 13:19 101 6 gusting 10 13.9
2020-May-26 13:14 099 6 gusting 10 13.9
2020-May-26 12:59 102 6 gusting 10 13.9
2020-May-26 12:49 102 7 gusting 11 13.9
2020-May-26 12:44 100 7 gusting 11 13.9
2020-May-26 12:34 103 7 gusting 11 13.9
2020-May-26 12:29 102 7 gusting 12 13.9
2020-May-26 12:24 104 8 gusting 12 14.4
2020-May-26 12:14 103 7 gusting 13 14.4
2020-May-26 12:10 098 7 gusting 11 14.4
2020-May-26 12:04 095 7 gusting 10 14.4
2020-May-26 11:54 093 7 gusting 10 14.4
2020-May-26 11:49 096 7 gusting 13 14.4
2020-May-26 11:34 100 7 gusting 12 14.4
2020-May-26 11:29 102 8 gusting 12 14.4
2020-May-26 11:19 099 8 gusting 12 14.4
2020-May-26 11:14 097 6 gusting 8 14.4
2020-May-26 11:04 101 8 gusting 11 14.4
2020-May-26 10:59 101 8 gusting 13 14.4
2020-May-26 10:54 099 9 gusting 12 14.4
2020-May-26 10:49 102 8 gusting 13 14.4
2020-May-26 10:29 096 8 gusting 13 14.4
2020-May-26 10:19 097 6 gusting 12 14.4
2020-May-26 10:14 101 7 gusting 10 14.4
2020-May-26 10:04 103 6 gusting 10 14.4
2020-May-26 09:49 101 6 gusting 8 14.4
2020-May-26 09:44 094 6 gusting 10 14.4
2020-May-26 09:39 090 6 gusting 11 14.4
2020-May-26 09:34 100 7 gusting 10 14.4
2020-May-26 09:14 101 6 gusting 10 15.0
2020-May-26 09:04 101 6 gusting 10 15.0
2020-May-26 08:59 096 5 gusting 7 15.0
2020-May-26 08:54 117 4 gusting 6 15.0
2020-May-26 08:49 103 4 gusting 7 15.0
2020-May-26 08:44 100 5 gusting 6 15.0
2020-May-26 08:39 106 4 gusting 8 15.0
2020-May-26 08:34 108 4 gusting 6 15.0
2020-May-26 08:24 106 1 gusting 6 15.0
2020-May-26 08:14 109 2 gusting 6 15.6
2020-May-26 08:04 114 2 gusting 6 15.6
2020-May-26 07:59 103 3 gusting 7 15.6
2020-May-26 07:54 104 5 gusting 8 15.6
2020-May-26 07:49 103 2 gusting 6 15.6
2020-May-26 07:44 101 2 gusting 5 15.6
2020-May-26 07:34 099 1 gusting 4 15.6
2020-May-26 07:19 079 2 gusting 6 15.6
2020-May-26 07:09 008 1 gusting 4 15.6
2020-May-26 06:59 099 2 gusting 6 15.6
2020-May-26 06:54 094 2 gusting 5 15.6
2020-May-26 06:44 116 1 gusting 4 15.6
2020-May-26 06:39 080 1 gusting 5 15.6
2020-May-26 06:34 084 1 gusting 5 15.6
2020-May-26 06:29 135 1 gusting 5 15.6
2020-May-26 06:24 101 3 gusting 6 15.6
2020-May-26 06:19 108 2 gusting 6 15.6
2020-May-26 06:14 110 1 gusting 6 15.6
2020-May-26 06:09 090 1 gusting 6 15.6
2020-May-26 05:54 114 3 gusting 6 15.6
2020-May-26 05:49 112 1 gusting 6 15.6
2020-May-26 05:44 100 4 gusting 6 15.6
2020-May-26 05:39 098 4 gusting 7 15.6
2020-May-26 05:34 092 4 gusting 6 15.6
2020-May-26 05:29 100 5 gusting 10 15.6
2020-May-26 05:24 097 6 gusting 10 15.6
2020-May-26 05:14 097 5 gusting 8 16.1
2020-May-26 05:09 108 2 gusting 6 16.1
2020-May-26 05:04 066 1 gusting 4 16.1
2020-May-26 04:59 084 1 gusting 5 16.1
2020-May-26 04:54 066 0 gusting 2 16.7
2020-May-26 04:44 063 0 gusting 2 16.7
2020-May-26 04:39 057 0 gusting 4 16.7
2020-May-26 04:29 091 1 gusting 2 16.7
2020-May-26 04:24 085 0 gusting 2 16.7